�N����,����,����,����,����,�C��,���x,�~����,�S�V����,�ő�u�ԕ���,,,
,,,,,,,,,����,����,����,�N��
yyyy/mm/dd,hh:mm:ss,(16),16����,m/s,��,%,mm,KW/�u,(16),16����,m/s,Time
2014/6/1,1:00:00,12,��,1.9,11.8,86.6,0,0,13,���k��,3.4,2
2014/6/1,2:00:00,15,�k�k��,0.4,10.6,88.1,0,0,11,���쐼,4,5
2014/6/1,3:00:00,13,���k��,0.3,9.9,90.9,0,0,2,�k��,3.5,34
2014/6/1,4:00:00,11,���쐼,0.8,11.6,82.9,0,0.01,13,���k��,3.8,22
2014/6/1,5:00:00,13,���k��,1.8,13.7,79.8,0,0.07,13,���k��,5.5,30
2014/6/1,6:00:00,14,�k��,2,18.5,62.6,0,0.26,13,���k��,4.8,12
2014/6/1,7:00:00,1,�k�k��,2.7,21.2,48.9,0,0.45,16,�k,6.4,57
2014/6/1,8:00:00,7,��쓌,2.7,19.2,61,0,0.63,7,��쓌,5.4,41
2014/6/1,9:00:00,8,��,3.5,20.2,53.2,0,0.66,8,��,5.6,31
2014/6/1,10:00:00,7,��쓌,3.6,19.4,53.1,0,0.95,7,��쓌,6.8,48
2014/6/1,11:00:00,7,��쓌,3.7,20.2,47.8,0,1.04,8,��,6.4,53
2014/6/1,12:00:00,7,��쓌,3.9,20.8,52.2,0,1.07,7,��쓌,7,29
2014/6/1,13:00:00,8,��,3.8,19.9,49.8,0,1.01,7,��쓌,7.1,15
2014/6/1,14:00:00,8,��,4.5,20.1,49.2,0,0.88,8,��,8,29
2014/6/1,15:00:00,8,��,3.5,19.8,49.1,0,0.78,8,��,7.8,17
2014/6/1,16:00:00,5,���쓌,1.9,18.1,64.1,0,0.58,9,��쐼,7.1,1
2014/6/1,17:00:00,3,���k��,1.9,15.7,73.2,0,0.41,4,��,5.3,27
2014/6/1,18:00:00,5,���쓌,2,15.2,70.8,0,0.2,6,�쓌,5,51
2014/6/1,19:00:00,12,��,0.4,11.1,81.4,0,0.04,5,���쓌,2.4,1
2014/6/1,20:00:00,13,���k��,0.9,9.1,93.8,0,0,13,���k��,1.6,57
2014/6/1,21:00:00,15,�k�k��,0.9,7.4,93.9,0,0,16,�k,2.2,51
2014/6/1,22:00:00,11,���쐼,0.7,6.3,94.5,0,0,13,���k��,2.1,9
2014/6/1,23:00:00,13,���k��,0.9,6.2,98.6,0,0,13,���k��,1.4,59
2014/6/1,0:00:00,13,���k��,1.2,5.3,98.3,0,0,12,��,2.2,41
2014/6/2,1:00:00,13,���k��,1.5,5.6,98.3,0,0,13,���k��,2.8,13
2014/6/2,2:00:00,13,���k��,1.8,5.6,98.8,0,0,13,���k��,3,15
2014/6/2,3:00:00,13,���k��,1.3,5.2,98.6,0,0,13,���k��,3,21
2014/6/2,4:00:00,12,��,1.3,5.3,98.9,0,0.01,12,��,2.4,0
2014/6/2,5:00:00,13,�É�,0.2,7.5,99.1,0,0.07,13,���k��,2.4,2
2014/6/2,6:00:00,1,�k�k��,0.3,11.5,88.1,0,0.24,1,�k�k��,2.5,41
2014/6/2,7:00:00,5,���쓌,0.4,15.3,79.2,0,0.44,6,�쓌,1.9,41
2014/6/2,8:00:00,6,�쓌,2.5,15.1,70.4,0,0.63,6,�쓌,3.6,50
2014/6/2,9:00:00,7,��쓌,2.5,16,69.8,0,0.79,8,��,4,47
2014/6/2,10:00:00,6,�쓌,2.8,16.3,67.9,0,0.93,6,�쓌,4.8,36
2014/6/2,11:00:00,7,��쓌,2.5,16.5,63.1,0,1.03,5,���쓌,4.6,13
2014/6/2,12:00:00,7,��쓌,2.1,16.6,62.7,0,1.01,8,��,5,1
2014/6/2,13:00:00,6,�쓌,2.5,16.5,67.6,0,1,7,��쓌,4.8,41
2014/6/2,14:00:00,6,�쓌,2.5,15.3,78,0,0.91,5,���쓌,4.8,16
2014/6/2,15:00:00,4,��,2.5,15.1,75.8,0,0.76,5,���쓌,4.9,12
2014/6/2,16:00:00,4,��,2.5,14,76.7,0,0.59,4,��,4.3,17
2014/6/2,17:00:00,4,��,3,13.2,81.4,0,0.39,5,���쓌,4.5,0
2014/6/2,18:00:00,3,���k��,3.4,10.9,85.9,0,0.19,3,���k��,5.1,51
2014/6/2,19:00:00,2,�k��,2.4,10.1,90.4,0,0.04,3,���k��,4.8,14
2014/6/2,20:00:00,1,�k�k��,1.9,9.2,93.3,0,0,2,�k��,3.2,2
2014/6/2,21:00:00,15,�k�k��,0.5,8.8,97.1,0,0,1,�k�k��,2.6,16
2014/6/2,22:00:00,12,��,0.9,7.1,97.8,0,0,12,��,1.3,33
2014/6/2,23:00:00,13,���k��,1,7,98.5,0,0,12,��,1.8,21
2014/6/2,0:00:00,12,��,1.5,7.5,99.1,0,0,12,��,1.8,52
2014/6/3,1:00:00,13,���k��,0.7,6.7,99,0,0,12,��,1.7,23
2014/6/3,2:00:00,13,���k��,1.6,7.6,99.1,0,0,13,���k��,2.3,53
2014/6/3,3:00:00,13,���k��,1.6,7,98.6,0,0,12,��,2.7,35
2014/6/3,4:00:00,12,��,0.8,7,98.8,0,0.01,13,���k��,2.1,43
2014/6/3,5:00:00,12,��,1,8.5,99,0,0.06,13,���k��,1.9,45
2014/6/3,6:00:00,3,���k��,0.3,12,90.6,0,0.22,7,��쓌,1.5,23
2014/6/3,7:00:00,5,���쓌,1.2,14.8,82.4,0,0.41,7,��쓌,2.2,44
2014/6/3,8:00:00,6,�쓌,2.2,15.4,75.4,0,0.6,7,��쓌,3.1,58
2014/6/3,9:00:00,3,���k��,0.6,17.8,73,0,0.76,7,��쓌,3.8,8
2014/6/3,10:00:00,4,��,1.9,19.9,67.7,0,0.9,4,��,3,37
2014/6/3,11:00:00,5,���쓌,1.9,19.3,68.4,0,1,5,���쓌,3.7,12
2014/6/3,12:00:00,5,���쓌,2,20.5,65.3,0,1.03,7,��쓌,3.1,9
2014/6/3,13:00:00,5,���쓌,2,21,64.5,0,1,6,�쓌,4.1,39
2014/6/3,14:00:00,4,��,2.5,23.4,58.5,0,0.89,4,��,3.6,55
2014/6/3,15:00:00,5,���쓌,2.4,18.8,67.5,0,0.75,5,���쓌,4.2,40
2014/6/3,16:00:00,3,���k��,3.7,17.4,68,0,0.57,3,���k��,4.8,56
2014/6/3,17:00:00,3,���k��,2.5,16.7,76.5,0,0.38,3,���k��,5.6,9
2014/6/3,18:00:00,4,��,2.2,14.6,83.1,0,0.18,3,���k��,4.6,12
2014/6/3,19:00:00,2,�k��,3.8,12.1,90.1,0,0.04,2,�k��,6.2,59
2014/6/3,20:00:00,1,�k�k��,3.8,11.5,90.8,0,0,2,�k��,6.9,0
2014/6/3,21:00:00,16,�k,1.2,10.9,92.8,0,0,1,�k�k��,6.5,6
2014/6/3,22:00:00,6,�쓌,1,9.8,96.6,0,0,1,�k�k��,1.8,1
2014/6/3,23:00:00,6,�쓌,0.3,8.8,96.8,0,0,6,�쓌,2.1,27
2014/6/3,0:00:00,13,���k��,1.5,8.8,98.5,0,0,3,���k��,2,32
2014/6/4,1:00:00,11,���쐼,0.9,9.1,98.3,0,0,12,��,2.2,34
2014/6/4,2:00:00,7,�É�,0,8.4,98.8,0,0,7,��쓌,1.7,12
2014/6/4,3:00:00,15,�É�,0,7.5,98.7,0,0,15,�k�k��,2,51
2014/6/4,4:00:00,16,�k,0.3,7.2,99.2,0,0.01,16,�k,2.7,39
2014/6/4,5:00:00,2,�k��,0.8,9.3,99.7,0,0.06,16,�k,2.7,2
2014/6/4,6:00:00,9,��쐼,0.7,11.8,92.9,0,0.21,2,�k��,1.8,20
2014/6/4,7:00:00,6,�쓌,0.7,15,85.8,0,0.41,4,��,2,24
2014/6/4,8:00:00,6,�쓌,2,14.4,79.9,0,0.6,4,��,3.7,34
2014/6/4,9:00:00,7,��쓌,2.6,15.2,75.5,0,0.76,6,�쓌,4.7,38
2014/6/4,10:00:00,7,��쓌,2.1,17.5,73,0,0.9,8,��,4.4,17
2014/6/4,11:00:00,7,��쓌,1.9,20.6,68,0,0.99,9,��쐼,3.8,57
2014/6/4,12:00:00,6,�쓌,3,18.4,69.5,0,1.01,6,�쓌,4,59
2014/6/4,13:00:00,6,�쓌,2.6,15.2,77.7,0,0.98,5,���쓌,4.3,14
2014/6/4,14:00:00,5,���쓌,1.5,17.2,81.2,0,0.9,5,���쓌,3.7,19
2014/6/4,15:00:00,4,��,2.5,15.1,80.8,0,0.76,4,��,4.3,18
2014/6/4,16:00:00,3,���k��,3.7,14.2,83,0,0.59,3,���k��,5.1,59
2014/6/4,17:00:00,3,���k��,3.5,12.9,91.4,0,0.4,4,��,5.1,13
2014/6/4,18:00:00,3,���k��,3.5,12,96.3,0,0.18,2,�k��,5.5,39
2014/6/4,19:00:00,2,�k��,2.4,11.7,98.8,0,0.02,2,�k��,6.7,19
2014/6/4,20:00:00,2,�k��,3.3,11.6,99.4,0,0,2,�k��,6,55
2014/6/4,21:00:00,1,�k�k��,3.5,11.5,99.6,0,0,1,�k�k��,6.1,18
2014/6/4,22:00:00,1,�k�k��,2.6,11.6,99.8,0,0,1,�k�k��,6.2,13
2014/6/4,23:00:00,1,�k�k��,3.2,11.1,99.9,0,0,1,�k�k��,4.6,44
2014/6/4,0:00:00,1,�k�k��,2.6,10.8,100,0,0,1,�k�k��,5.1,7
2014/6/5,1:00:00,1,�k�k��,1.1,10.8,100,0,0,1,�k�k��,4.4,4
2014/6/5,2:00:00,1,�k�k��,2,10.4,100,0,0,2,�k��,3.3,27
2014/6/5,3:00:00,1,�k�k��,0.9,10.2,100,0,0,2,�k��,2.3,0
2014/6/5,4:00:00,1,�k�k��,0.4,9.8,100,0,0,1,�k�k��,1.4,12
2014/6/5,5:00:00,16,�É�,0.2,10.3,100,0,0.03,16,�k,1.2,7
2014/6/5,6:00:00,5,���쓌,1.2,10.4,100,0,0.09,5,���쓌,2.7,53
2014/6/5,7:00:00,4,��,1.4,11,100,0,0.19,3,���k��,2.6,19
2014/6/5,8:00:00,4,��,2,11.6,100,0,0.32,5,���쓌,3.1,33
2014/6/5,9:00:00,4,��,3.9,11.8,99.9,0,0.57,4,��,6,59
2014/6/5,10:00:00,4,��,3.4,12.1,91.6,0,0.77,4,��,6,4
2014/6/5,11:00:00,4,��,3.5,11.5,93.9,0,0.55,4,��,5.4,42
2014/6/5,12:00:00,4,��,3.4,11.9,93.4,0,0.48,4,��,4.9,19
2014/6/5,13:00:00,4,��,3.6,12.2,92.8,0,0.47,3,���k��,4.9,19
2014/6/5,14:00:00,4,��,2.8,12.8,94.1,0,0.46,5,���쓌,4.6,12
2014/6/5,15:00:00,5,���쓌,2.8,11.5,96.2,0,0.37,5,���쓌,3.9,59
2014/6/5,16:00:00,5,���쓌,2.3,11.5,97.3,0,0.26,4,��,3.8,4
2014/6/5,17:00:00,4,��,1.8,11.3,99.1,0,0.15,5,���쓌,3.5,8
2014/6/5,18:00:00,4,��,2.2,10.6,99.7,0,0.06,4,��,3.7,30
2014/6/5,19:00:00,3,���k��,2.3,10.5,99.9,0,0.01,3,���k��,3.2,56
2014/6/5,20:00:00,4,��,1.9,10.4,100,0,0,2,�k��,2.9,12
2014/6/5,21:00:00,3,���k��,1.3,10.4,100,0,0,4,��,2.4,2
2014/6/5,22:00:00,1,�k�k��,0.6,10.6,100,0,0,3,���k��,2.2,14
2014/6/5,23:00:00,2,�k��,1.6,11,100,0,0,3,���k��,2.6,34
2014/6/5,0:00:00,2,�k��,1.2,11.1,100,0,0,1,�k�k��,2.8,16
2014/6/6,1:00:00,4,��,1.6,11,100,0,0,2,�k��,2.5,10
2014/6/6,2:00:00,4,��,1.7,11.2,100,0,0,3,���k��,2.5,5
2014/6/6,3:00:00,6,�쓌,0.4,11,100,0,0,3,���k��,2.3,19
2014/6/6,4:00:00,3,�É�,0.1,11.2,100,0,0,1,�k�k��,0.7,58
2014/6/6,5:00:00,4,�É�,0.1,11.4,100,0,0.02,12,��,1.1,34
2014/6/6,6:00:00,14,�k��,0.6,12.2,100,0,0.11,1,�k�k��,1.7,38
2014/6/6,7:00:00,5,���쓌,2.1,12.1,100,0,0.12,5,���쓌,2.7,50
2014/6/6,8:00:00,4,��,2.3,12.3,100,0,0.16,4,��,3.5,57
2014/6/6,9:00:00,5,���쓌,2.2,12.6,100,0,0.27,4,��,4.1,40
2014/6/6,10:00:00,5,���쓌,1.9,12.6,100,0,0.45,4,��,3.1,33
2014/6/6,11:00:00,5,���쓌,2.3,13.2,98.9,0,0.55,5,���쓌,3.3,59
2014/6/6,12:00:00,5,���쓌,2.3,12.7,92,0,0.54,5,���쓌,4.4,17
2014/6/6,13:00:00,5,���쓌,2.8,13.2,91.7,0,0.48,4,��,4.1,59
2014/6/6,14:00:00,5,���쓌,1.8,12.5,96.1,0,0.34,5,���쓌,4.3,18
2014/6/6,15:00:00,5,���쓌,1.5,13,93.6,0,0.29,5,���쓌,2.8,52
2014/6/6,16:00:00,5,���쓌,1.5,12.9,94.8,0,0.26,4,��,3.1,39
2014/6/6,17:00:00,4,��,2.1,12.4,93.3,0,0.16,5,���쓌,3.1,15
2014/6/6,18:00:00,3,���k��,1.4,12,96.6,0,0.07,4,��,2.8,24
2014/6/6,19:00:00,5,���쓌,1.9,11.2,98.9,0,0.01,4,��,3.1,16
2014/6/6,20:00:00,3,���k��,2.2,10.9,99.7,0,0,2,�k��,3.5,45
2014/6/6,21:00:00,2,�k��,1.6,11,100,0,0,2,�k��,3.5,1
2014/6/6,22:00:00,3,���k��,1.6,11.1,100,0,0,1,�k�k��,2.8,30
2014/6/6,23:00:00,2,�k��,2.2,11.2,100,0,0,2,�k��,3.3,53
2014/6/6,0:00:00,2,�k��,1.8,10.9,100,0,0,4,��,4.4,6
2014/6/7,1:00:00,1,�k�k��,1.8,10.8,100,0,0,2,�k��,2.9,38
2014/6/7,2:00:00,2,�k��,1.4,11,100,0,0,2,�k��,2.6,45
2014/6/7,3:00:00,2,�k��,1.8,10.9,100,0,0,2,�k��,3.5,20
2014/6/7,4:00:00,3,���k��,2.3,10.8,100,0,0,2,�k��,4.6,44
2014/6/7,5:00:00,2,�k��,2.2,11.1,100,0.5,0.03,2,�k��,3.6,44
2014/6/7,6:00:00,2,�k��,2.5,10.9,99.9,0,0.05,3,���k��,4.7,21
2014/6/7,7:00:00,2,�k��,2.1,11.5,99.6,0,0.11,3,���k��,4.1,39
2014/6/7,8:00:00,2,�k��,2.4,11.5,99.4,0,0.12,3,���k��,3.7,59
2014/6/7,9:00:00,3,���k��,2.5,11.8,98.9,0.5,0.16,2,�k��,3.6,44
2014/6/7,10:00:00,3,���k��,2.5,12.4,98.7,0.5,0.19,3,���k��,3.7,54
2014/6/7,11:00:00,3,���k��,2.8,12.2,98.2,0,0.18,2,�k��,4.1,23
2014/6/7,12:00:00,3,���k��,2.8,11.8,98.7,0.5,0.16,3,���k��,3.8,22
2014/6/7,13:00:00,3,���k��,2.5,11.8,99.1,0,0.15,2,�k��,4,34
2014/6/7,14:00:00,3,���k��,2.6,11.6,99,0.5,0.14,3,���k��,3.6,58
2014/6/7,15:00:00,3,���k��,2.8,11.5,99.2,0,0.11,2,�k��,4.2,43
2014/6/7,16:00:00,3,���k��,2.7,11.4,99.3,0,0.11,3,���k��,4.4,56
2014/6/7,17:00:00,2,�k��,2.5,11.1,99.4,0.5,0.09,3,���k��,4.5,0
2014/6/7,18:00:00,2,�k��,2.7,10.8,99.5,0,0.04,2,�k��,4.5,17
2014/6/7,19:00:00,3,���k��,2.1,10.5,99.6,0.5,0.01,2,�k��,4,20
2014/6/7,20:00:00,3,���k��,2.2,10.4,99.8,0,0,2,�k��,3.7,24
2014/6/7,21:00:00,3,���k��,1.8,10.5,99.9,0.5,0,3,���k��,2.5,56
2014/6/7,22:00:00,2,�k��,1.2,10.7,100,0.5,0,3,���k��,2.5,18
2014/6/7,23:00:00,2,�k��,1.2,10.7,100,0.5,0,1,�k�k��,2.6,32
2014/6/7,0:00:00,1,�k�k��,1.1,10.7,100,0,0,1,�k�k��,2.3,34
2014/6/8,1:00:00,2,�k��,1.2,10.8,100,0,0,1,�k�k��,2,48
2014/6/8,2:00:00,2,�k��,2.2,10.6,100,0,0,2,�k��,3.9,53
2014/6/8,3:00:00,2,�k��,1.6,10.8,100,0,0,1,�k�k��,2.8,17
2014/6/8,4:00:00,1,�k�k��,1.5,10.7,100,1,0,2,�k��,2.8,17
2014/6/8,5:00:00,1,�k�k��,0.8,11,100,1,0.02,1,�k�k��,2.6,10
2014/6/8,6:00:00,16,�k,0.7,11.7,100,1,0.06,14,�k��,2,40
2014/6/8,7:00:00,4,��,1.8,11.5,99.5,0.5,0.09,4,��,2.6,58
2014/6/8,8:00:00,4,��,1.2,12.4,99.5,0.5,0.14,3,���k��,3.7,18
2014/6/8,9:00:00,3,���k��,3.5,12,98.9,0.5,0.19,3,���k��,5.7,58
2014/6/8,10:00:00,3,���k��,4.3,12.2,98.9,0.5,0.26,3,���k��,6.6,44
2014/6/8,11:00:00,2,�k��,3.5,12.7,98.4,0.5,0.26,2,�k��,6.7,10
2014/6/8,12:00:00,2,�k��,4.3,12.6,97.9,0,0.28,2,�k��,6.8,51
2014/6/8,13:00:00,3,���k��,3.5,12.4,98.4,0.5,0.21,2,�k��,6.8,47
2014/6/8,14:00:00,2,�k��,3.4,12.4,98.5,0.5,0.22,3,���k��,6.1,23
2014/6/8,15:00:00,3,���k��,3.3,11.7,99,0.5,0.12,3,���k��,6,30
2014/6/8,16:00:00,2,�k��,3.6,11.1,99.4,0,0.1,2,�k��,5.6,51
2014/6/8,17:00:00,2,�k��,3,11,99.6,1,0.05,3,���k��,6.2,31
2014/6/8,18:00:00,2,�k��,2.9,10.8,99.6,0.5,0.03,2,�k��,5.2,58
2014/6/8,19:00:00,2,�k��,1.7,10.6,99.5,1,0.01,1,�k�k��,4.7,2
2014/6/8,20:00:00,1,�k�k��,1.8,10.8,99.6,1.5,0,2,�k��,6,10
2014/6/8,21:00:00,1,�k�k��,1.7,11.2,99.6,1.5,0,3,���k��,4.2,37
2014/6/8,22:00:00,1,�k�k��,1.5,11.4,99.7,1,0,2,�k��,3.3,1
2014/6/8,23:00:00,1,�k�k��,1.6,11.4,99.7,2,0,1,�k�k��,3,36
2014/6/8,0:00:00,1,�k�k��,1.4,11.7,99.7,1,0,1,�k�k��,2.5,44
2014/6/9,1:00:00,14,�k��,0.6,11.7,99.7,0.5,0,2,�k��,2.5,1
2014/6/9,2:00:00,1,�k�k��,0.5,11.8,99.7,1.5,0,16,�k,2.9,4
2014/6/9,3:00:00,16,�k,0.6,11.7,99.7,1.5,0,3,���k��,2.6,35
2014/6/9,4:00:00,15,�k�k��,0.4,11.8,99.9,0.5,0,2,�k��,1.4,48
2014/6/9,5:00:00,12,�É�,0,12.1,100,1,0.01,12,��,0.5,21
2014/6/9,6:00:00,15,�k�k��,0.4,12.7,100,1,0.05,14,�k��,1.6,45
2014/6/9,7:00:00,3,���k��,1.7,13.1,99.4,0.5,0.1,4,��,3.3,53
2014/6/9,8:00:00,3,���k��,1.7,13.6,99.1,1,0.16,2,�k��,3.1,24
2014/6/9,9:00:00,3,���k��,3.1,14.1,98.2,0.5,0.25,4,��,4.8,59
2014/6/9,10:00:00,3,���k��,4,14.1,97.3,0,0.3,4,��,6.6,7
2014/6/9,11:00:00,3,���k��,3,13.8,97.8,0.5,0.3,3,���k��,6.8,32
2014/6/9,12:00:00,3,���k��,4.4,13.9,97.2,1,0.38,3,���k��,7,47
2014/6/9,13:00:00,3,���k��,3.8,13.8,98.4,0,0.27,3,���k��,7.3,34
2014/6/9,14:00:00,3,���k��,3.6,12.7,98.9,0.5,0.22,3,���k��,6.7,23
2014/6/9,15:00:00,3,���k��,3.5,12.8,99.2,0,0.18,3,���k��,6.1,39
2014/6/9,16:00:00,2,�k��,3,13.1,99.4,0.5,0.18,2,�k��,6.2,9
2014/6/9,17:00:00,2,�k��,3.5,12.5,99.3,0.5,0.13,2,�k��,5.3,50
2014/6/9,18:00:00,2,�k��,3.8,12.1,99.5,1,0.07,3,���k��,6,30
2014/6/9,19:00:00,2,�k��,2.6,11.8,99.6,0,0.01,2,�k��,5.7,1
2014/6/9,20:00:00,2,�k��,2.6,11.6,99.5,0,0,3,���k��,4.4,46
2014/6/9,21:00:00,2,�k��,2.3,11.5,99.6,2,0,1,�k�k��,3.9,51
2014/6/9,22:00:00,2,�k��,2,11.4,99.7,1.5,0,2,�k��,4.2,37
2014/6/9,23:00:00,2,�k��,0.8,11.6,99.8,1.5,0,2,�k��,2.6,6
2014/6/9,0:00:00,2,�k��,1.3,11.9,100,1,0,1,�k�k��,2.5,35
2014/6/10,1:00:00,2,�k��,1.5,11.8,99.9,1,0,2,�k��,4.3,12
2014/6/10,2:00:00,2,�k��,2,11.5,99.8,1.5,0,2,�k��,5,33
2014/6/10,3:00:00,2,�k��,1.8,12,99.9,1,0,2,�k��,3.7,31
2014/6/10,4:00:00,2,�k��,1.7,12.1,99.9,1,0,1,�k�k��,3.4,28
2014/6/10,5:00:00,1,�k�k��,0.9,12.4,99.9,0.5,0.01,1,�k�k��,3.2,21
2014/6/10,6:00:00,2,�k��,0.7,12.8,99.9,0.5,0.05,2,�k��,1.9,3
2014/6/10,7:00:00,2,�k��,2.4,13.1,99.5,0.5,0.1,2,�k��,4.1,40
2014/6/10,8:00:00,3,���k��,2.9,13.9,98.4,0.5,0.26,3,���k��,4.8,49
2014/6/10,9:00:00,3,���k��,3.5,13.9,98.5,0,0.26,2,�k��,5.8,56
2014/6/10,10:00:00,3,���k��,5,14.2,95.1,0,0.46,3,���k��,7.3,54
2014/6/10,11:00:00,3,���k��,3.4,13.9,96.4,0.5,0.32,3,���k��,6.3,9
2014/6/10,12:00:00,4,��,3.9,14,97.6,0,0.31,4,��,5.5,50
2014/6/10,13:00:00,3,���k��,3.4,13,98,0,0.35,3,���k��,6.1,13
2014/6/10,14:00:00,4,��,2.8,13.1,97.5,0,0.33,3,���k��,5,19
2014/6/10,15:00:00,3,���k��,2.1,13,98.5,0,0.24,3,���k��,4.7,5
2014/6/10,16:00:00,3,���k��,2.5,12.9,99.2,0,0.19,3,���k��,3.8,17
2014/6/10,17:00:00,3,���k��,2.1,12.6,99.6,0,0.08,4,��,3.1,26
2014/6/10,18:00:00,2,�k��,1.9,12.2,99.8,0,0.05,3,���k��,3.6,26
2014/6/10,19:00:00,2,�k��,1.4,12,99.9,0,0.01,3,���k��,3,45
2014/6/10,20:00:00,2,�k��,1.8,11.9,100,0,0,2,�k��,2.8,48
2014/6/10,21:00:00,2,�k��,1.1,11.9,100,0,0,1,�k�k��,2.3,31
2014/6/10,22:00:00,4,��,1.6,11.7,100,0,0,4,��,2.2,52
2014/6/10,23:00:00,3,���k��,2,11.4,100,0,0,3,���k��,3.1,50
2014/6/10,0:00:00,1,�k�k��,1.5,11.3,100,0.5,0,3,���k��,3.2,17
2014/6/11,1:00:00,16,�k,0.3,11.6,100,0,0,1,�k�k��,2.6,0
2014/6/11,2:00:00,3,���k��,1.3,11.7,100,0,0,3,���k��,2.1,57
2014/6/11,3:00:00,1,�k�k��,0.9,11.6,100,0,0,3,���k��,2.8,8
2014/6/11,4:00:00,16,�k,0.5,11.8,100,0,0,2,�k��,2.4,17
2014/6/11,5:00:00,1,�k�k��,0.6,12.2,100,0.5,0.02,3,���k��,2,35
2014/6/11,6:00:00,1,�k�k��,0.8,12.8,100,0.5,0.07,2,�k��,1.8,59
2014/6/11,7:00:00,4,��,2.5,12.9,100,0,0.11,4,��,3.8,58
2014/6/11,8:00:00,3,���k��,1.7,13.2,100,0,0.19,3,���k��,4.6,34
2014/6/11,9:00:00,2,�k��,2.8,13.3,100,0,0.19,2,�k��,4.2,59
2014/6/11,10:00:00,3,���k��,3.1,13.6,100,0.5,0.23,3,���k��,4.6,4
2014/6/11,11:00:00,3,���k��,3.2,13.7,100,0,0.28,3,���k��,4.9,47
2014/6/11,12:00:00,3,���k��,3.8,14,99.9,1,0.29,3,���k��,5.5,43
2014/6/11,13:00:00,3,���k��,3.5,13.7,99.7,1.5,0.3,2,�k��,5.5,24
2014/6/11,14:00:00,3,���k��,3.4,14,99.9,0.5,0.28,3,���k��,5.3,12
2014/6/11,15:00:00,3,���k��,2.5,14.3,99.9,0.5,0.22,3,���k��,4.6,21
2014/6/11,16:00:00,3,���k��,2.5,13.5,99.9,0,0.2,3,���k��,4.3,7
2014/6/11,17:00:00,2,�k��,2.7,13.2,100,0,0.12,3,���k��,4,47
2014/6/11,18:00:00,3,���k��,2.5,12.9,100,0.5,0.04,3,���k��,3.9,48
2014/6/11,19:00:00,2,�k��,1.6,12.8,100,0,0.01,2,�k��,3.7,32
2014/6/11,20:00:00,2,�k��,1.7,12.4,100,0,0,2,�k��,4.6,25
2014/6/11,21:00:00,2,�k��,1.3,12.9,100,0.5,0,2,�k��,3.7,23
2014/6/11,22:00:00,2,�k��,1.4,12.9,100,0,0,2,�k��,4.5,22
2014/6/11,23:00:00,3,���k��,2.1,12.5,100,0.5,0,3,���k��,3.3,56
2014/6/11,0:00:00,1,�k�k��,1.9,12.1,100,0,0,1,�k�k��,3.2,55
2014/6/12,1:00:00,2,�k��,2.2,12.2,100,0,0,2,�k��,3.9,45
2014/6/12,2:00:00,2,�k��,2.8,11.9,100,2.5,0,3,���k��,4.6,45
2014/6/12,3:00:00,2,�k��,1.1,12.1,100,0.5,0,3,���k��,4.3,6
2014/6/12,4:00:00,2,�k��,1.4,12.5,100,0.5,0,1,�k�k��,3.2,41
2014/6/12,5:00:00,16,�k,0.4,13,100,0,0.02,2,�k��,2.7,0
2014/6/12,6:00:00,6,�쓌,0.6,13.5,100,0.5,0.04,15,�k�k��,1.6,17
2014/6/12,7:00:00,7,��쓌,0.9,13.2,100,0,0.04,8,��,2.5,27
2014/6/12,8:00:00,8,��,2.2,13.3,100,1,0.05,9,��쐼,4.9,40
2014/6/12,9:00:00,9,��쐼,2.8,14.1,100,2.5,0.08,8,��,6.6,57
2014/6/12,10:00:00,8,��,3.1,13.9,100,1.5,0.07,7,��쓌,7.7,12
2014/6/12,11:00:00,8,��,2.5,13.8,100,0.5,0.09,8,��,5.6,2
2014/6/12,12:00:00,8,��,1.9,13.9,100,0,0.08,7,��쓌,5,37
2014/6/12,13:00:00,8,��,1.7,13.8,100,0,0.07,8,��,4.9,25
2014/6/12,14:00:00,6,�쓌,0.9,13.6,100,0.5,0.06,9,��쐼,4.1,31
2014/6/12,15:00:00,5,���쓌,1,13.9,100,0.5,0.05,5,���쓌,2.5,2
2014/6/12,16:00:00,4,��,1.2,14.2,100,2,0.06,6,�쓌,2.6,59
2014/6/12,17:00:00,6,�쓌,1.6,14.1,100,0,0.02,8,��,4.3,34
2014/6/12,18:00:00,8,��,0.8,13.6,100,1.5,0.01,8,��,7.6,17
2014/6/12,19:00:00,6,�쓌,1.9,13.1,100,1,0.01,6,�쓌,8.5,25
2014/6/12,20:00:00,3,���k��,2.1,12.5,100,0,0,5,���쓌,7.5,27
2014/6/12,21:00:00,1,�k�k��,2.4,12.5,100,0.5,0,1,�k�k��,3.9,52
2014/6/12,22:00:00,3,���k��,3.5,12.2,100,0,0,4,��,6.4,35
2014/6/12,23:00:00,2,�k��,5.5,12.2,100,0.5,0,3,���k��,8.6,52
2014/6/12,0:00:00,2,�k��,6.4,11.8,100,3.5,0,2,�k��,9.1,59
2014/6/13,1:00:00,2,�k��,6.1,11.3,100,3.5,0,3,���k��,10.5,40
2014/6/13,2:00:00,3,���k��,6.4,11,100,3,0,3,���k��,11.1,4
2014/6/13,3:00:00,2,�k��,5.6,11.6,100,6,0,3,���k��,11.2,1
2014/6/13,4:00:00,2,�k��,6.6,11.6,100,5.5,0,3,���k��,11.6,47
2014/6/13,5:00:00,2,�k��,8.3,11.6,100,6,0.01,3,���k��,13.9,56
2014/6/13,6:00:00,3,���k��,7.2,11.5,100,8,0.03,3,���k��,14.2,31
2014/6/13,7:00:00,3,���k��,7.9,12.5,100,7.5,0.06,3,���k��,12.5,44
2014/6/13,8:00:00,2,�k��,7.7,12.8,99.9,2,0.07,3,���k��,14.5,28
2014/6/13,9:00:00,2,�k��,6.6,12.5,98.1,0,0.14,2,�k��,13.3,20
2014/6/13,10:00:00,2,�k��,3.5,13.4,97.9,0.5,0.19,2,�k��,10.7,0
2014/6/13,11:00:00,1,�k�k��,2.1,13.9,98.2,0,0.12,1,�k�k��,7.4,6
2014/6/13,12:00:00,2,�k��,3.1,15.3,96.5,0,0.37,2,�k��,6.6,31
2014/6/13,13:00:00,3,���k��,3.6,14.7,97.9,0,0.34,3,���k��,7.7,59
2014/6/13,14:00:00,3,���k��,5.3,14.5,95.6,0,0.34,3,���k��,9.2,40
2014/6/13,15:00:00,3,���k��,4.3,13.8,97.2,0,0.23,3,���k��,8.3,8
2014/6/13,16:00:00,3,���k��,4.3,14.2,96.2,0,0.23,3,���k��,7.3,4
2014/6/13,17:00:00,3,���k��,3.2,12.6,98.9,0,0.1,3,���k��,6.5,25
2014/6/13,18:00:00,4,��,2.8,11.4,99.7,0,0.02,4,��,7.3,39
2014/6/13,19:00:00,4,��,1.6,11,100,0,0.01,4,��,3.6,22
2014/6/13,20:00:00,2,�k��,0.6,10.8,100,0,0,4,��,2.1,7
2014/6/13,21:00:00,5,���쓌,0.8,11,100,0,0,6,�쓌,1.8,46
2014/6/13,22:00:00,4,��,0.3,10.6,100,0,0,4,��,1.9,32
2014/6/13,23:00:00,11,���쐼,0.6,11,100,0,0,10,�쐼,1.8,41
2014/6/13,0:00:00,9,��쐼,1.5,12.7,100,0,0,8,��,4.1,51
2014/6/14,1:00:00,7,��쓌,2.5,13.5,99.5,0,0,7,��쓌,6,39
2014/6/14,2:00:00,9,��쐼,2.5,13.8,95.3,0,0,9,��쐼,4.9,45
2014/6/14,3:00:00,9,��쐼,3.3,13.4,94.4,0,0,9,��쐼,5.8,58
2014/6/14,4:00:00,9,��쐼,3,13.5,90.9,0,0,9,��쐼,6.9,1
2014/6/14,5:00:00,9,��쐼,3.5,12.9,89,0.5,0.02,9,��쐼,5.9,48
2014/6/14,6:00:00,9,��쐼,2.5,13.2,90.1,0,0.07,9,��쐼,5.5,4
2014/6/14,7:00:00,9,��쐼,3.7,14,83.8,0,0.1,9,��쐼,5.6,33
2014/6/14,8:00:00,9,��쐼,3.3,14.6,81.4,0,0.12,9,��쐼,7.5,20
2014/6/14,9:00:00,11,���쐼,4.3,16.5,72.3,0,0.27,11,���쐼,9.8,44
2014/6/14,10:00:00,10,�쐼,1.9,18.4,73.9,0,0.51,11,���쐼,6.8,12
2014/6/14,11:00:00,7,��쓌,4.1,17.1,65.8,0,0.73,6,�쓌,7.1,35
2014/6/14,12:00:00,11,���쐼,6.4,19.8,62.6,0,0.66,12,��,11.2,48
2014/6/14,13:00:00,11,���쐼,5.2,22.2,58,0,1.03,12,��,13.4,14
2014/6/14,14:00:00,11,���쐼,3.9,22.3,53.1,0,1.06,11,���쐼,9.9,12
2014/6/14,15:00:00,9,��쐼,5,20.1,64,0,0.81,11,���쐼,10.6,46
2014/6/14,16:00:00,9,��쐼,5,18.3,69.3,0,0.52,10,�쐼,9.8,31
2014/6/14,17:00:00,9,��쐼,4.5,16,80.3,0,0.35,9,��쐼,8.6,0
2014/6/14,18:00:00,9,��쐼,3.1,15.6,86.5,0,0.18,9,��쐼,7.4,17
2014/6/14,19:00:00,9,��쐼,3.1,15.4,87.2,0,0.03,9,��쐼,5.5,40
2014/6/14,20:00:00,9,��쐼,3.3,14.2,87.8,0,0,9,��쐼,5.9,33
2014/6/14,21:00:00,9,��쐼,1.8,13.9,89.6,0,0,8,��,5.1,2
2014/6/14,22:00:00,9,��쐼,1,12.7,94.2,0,0,8,��,3.3,22
2014/6/14,23:00:00,9,��쐼,1.9,13.8,90.9,0,0,10,�쐼,4.4,17
2014/6/14,0:00:00,11,���쐼,0.6,11.8,98,0,0,11,���쐼,2.5,9
2014/6/15,1:00:00,13,���k��,0.5,11.9,98.5,0,0,15,�k�k��,2.1,21
2014/6/15,2:00:00,6,�쓌,0.3,10.4,98.3,0,0,12,��,1.9,43
2014/6/15,3:00:00,14,�k��,0.5,9.6,99.4,0,0,12,��,2,36
2014/6/15,4:00:00,14,�k��,1.4,10.7,100,0,0.01,13,���k��,2.1,42
2014/6/15,5:00:00,11,���쐼,0.6,12.5,99.7,0,0.06,13,���k��,2.2,50
2014/6/15,6:00:00,11,�É�,0.2,13.2,97.7,0,0.06,13,���k��,2.3,7
2014/6/15,7:00:00,2,�k��,1.7,15,92.3,0,0.26,4,��,4.2,36
2014/6/15,8:00:00,4,��,3.4,16.1,84.6,0,0.55,4,��,5.1,52
2014/6/15,9:00:00,3,���k��,3.7,15.6,80.8,0,0.72,3,���k��,6.1,48
2014/6/15,10:00:00,4,��,3.2,17.9,77.3,0,1.03,4,��,6.2,29
2014/6/15,11:00:00,4,��,2.8,18.1,75.6,0,0.91,3,���k��,5.1,5
2014/6/15,12:00:00,4,��,2.7,17.7,79,0,1.02,4,��,5.1,24
2014/6/15,13:00:00,4,��,3.2,18,80.6,0,0.59,3,���k��,4.7,4
2014/6/15,14:00:00,3,���k��,3,16.6,82.6,0,0.45,3,���k��,4.7,43
2014/6/15,15:00:00,4,��,3.6,16.7,81.7,0,0.64,5,���쓌,5.4,40
2014/6/15,16:00:00,4,��,3.8,16.3,82.4,0,0.6,4,��,5.4,50
2014/6/15,17:00:00,3,���k��,4,14.8,83.6,0,0.35,3,���k��,6.3,59
2014/6/15,18:00:00,3,���k��,3,12.5,94.2,0,0.07,3,���k��,5.9,46
2014/6/15,19:00:00,4,��,2.9,12.5,95.4,0,0.02,2,�k��,4.2,24
2014/6/15,20:00:00,6,�쓌,1,11.4,97.8,0,0,3,���k��,5.1,7
2014/6/15,21:00:00,3,���k��,3,11.3,98.7,0,0,2,�k��,5.8,41
2014/6/15,22:00:00,4,��,1.8,10.8,98.9,0,0,4,��,2.5,58
2014/6/15,23:00:00,1,�k�k��,1.1,11.1,99.5,0,0,3,���k��,2.7,19
2014/6/15,0:00:00,2,�k��,0.8,11.6,99.9,0,0,3,���k��,2,0
2014/6/16,1:00:00,16,�k,1,11.9,100,0,0,16,�k,2.8,48
2014/6/16,2:00:00,12,��,0.9,12.1,100,0,0,1,�k�k��,2.8,19
2014/6/16,3:00:00,9,��쐼,1.2,12,100,0,0,12,��,1.8,23
2014/6/16,4:00:00,5,���쓌,1.9,11.4,100,0,0,5,���쓌,2.8,57
2014/6/16,5:00:00,1,�k�k��,0.8,11.7,100,0,0.02,4,��,3.2,10
2014/6/16,6:00:00,3,���k��,1.7,12.1,100,0,0.05,3,���k��,2.4,56
2014/6/16,7:00:00,3,���k��,2,12.3,100,0,0.1,3,���k��,3,51
2014/6/16,8:00:00,4,��,2.2,12.9,99.8,0,0.2,3,���k��,3.9,26
2014/6/16,9:00:00,4,��,2.6,14.7,96.3,0,0.44,4,��,4.5,21
2014/6/16,10:00:00,4,��,3.4,14.6,84.3,0,0.66,5,���쓌,5.5,52
2014/6/16,11:00:00,5,���쓌,2.8,15.4,86,0,0.63,5,���쓌,4.8,6
2014/6/16,12:00:00,5,���쓌,3.1,14.8,88.6,0,0.96,4,��,4.8,19
2014/6/16,13:00:00,5,���쓌,2.5,15.3,87.1,0,0.71,6,�쓌,5.2,11
2014/6/16,14:00:00,5,���쓌,2.5,15.1,85,0,0.71,5,���쓌,4.4,50
2014/6/16,15:00:00,4,��,2.4,14.4,90.1,0,0.42,3,���k��,5.9,26
2014/6/16,16:00:00,4,��,3.8,14.3,89.9,0,0.28,4,��,5.3,59
2014/6/16,17:00:00,4,��,2.9,11.7,98.2,0,0.15,4,��,5.3,22
2014/6/16,18:00:00,3,���k��,2.8,11.3,98,0,0.07,3,���k��,5.7,6
2014/6/16,19:00:00,3,���k��,2.4,10.4,99.1,0,0.01,3,���k��,5.6,19
2014/6/16,20:00:00,3,���k��,1.5,10.9,99.8,0,0,3,���k��,3.9,35
2014/6/16,21:00:00,3,���k��,1.4,11.1,99.9,0,0,2,�k��,3.8,42
2014/6/16,22:00:00,3,���k��,2,11.1,100,0,0,3,���k��,3.3,11
2014/6/16,23:00:00,3,���k��,0.8,11.1,100,0,0,3,���k��,2.5,0
2014/6/16,0:00:00,2,�k��,0.6,11.1,100,0,0,3,���k��,1.9,33
2014/6/17,1:00:00,2,�k��,0.8,11.2,100,0,0,1,�k�k��,1.6,42
2014/6/17,2:00:00,1,�k�k��,1.4,11.5,100,0,0,2,�k��,2.5,45
2014/6/17,3:00:00,1,�k�k��,1.7,11.3,100,0,0,2,�k��,2.7,59
2014/6/17,4:00:00,1,�k�k��,1.5,11.2,100,0,0,2,�k��,3.1,6
2014/6/17,5:00:00,1,�k�k��,1.8,11.3,100,1,0.01,1,�k�k��,3,55
2014/6/17,6:00:00,2,�k��,1.9,11.4,100,0,0.04,1,�k�k��,3.5,8
2014/6/17,7:00:00,3,���k��,2,11.8,100,0,0.08,3,���k��,4.7,28
2014/6/17,8:00:00,3,���k��,2.3,11.8,100,0,0.1,2,�k��,4.2,40
2014/6/17,9:00:00,3,���k��,2.4,12,100,0.5,0.15,4,��,4,49
2014/6/17,10:00:00,3,���k��,2.7,12.1,100,0,0.24,3,���k��,4,50
2014/6/17,11:00:00,4,��,2.1,12.3,100,0,0.25,2,�k��,3.8,32
2014/6/17,12:00:00,3,���k��,2.1,12.3,100,0,0.24,3,���k��,3,53
2014/6/17,13:00:00,3,���k��,2.3,12.3,99.6,0,0.29,4,��,3.6,21
2014/6/17,14:00:00,3,���k��,2.9,12.9,95.3,0,0.34,3,���k��,4,53
2014/6/17,15:00:00,4,��,2.5,12.6,97.5,0,0.23,4,��,4.4,19